{"data":{"norad_id":65665,"intl_designator":"2025-211P","name":"STARLINK-35115","alt_names":[],"object_type":"PAYLOAD","status":"ACTIVE","operator":null,"country":"US","launch_date":"2025-09-19","launch_site_code":"AFWTR","launch_vehicle":null,"mission":null,"orbit_class":"UNKNOWN","rcs_meters":null,"size_class":null,"mass_kg":null,"dimensions":null,"purposes":["comms"],"wikipedia_slug":null,"has_3d_model":false,"image_url":null,"decayed_at":null,"tle_current":{"epoch":"2026-09-20T06:06:46.562976Z","epoch_age_seconds":129982,"freshness":"FRESH","line1":"1 65665U 25211P   26263.25470559  .00018486  00000+0  57369-3 0  9994","line2":"2 65665  97.2847 303.4603 0001051  80.8740 279.2622 15.33435982 56486","mean_motion":15.33435982,"eccentricity":0.0001051,"inclination_deg":97.2847,"raan_deg":303.4603,"arg_perigee_deg":80.874,"mean_anomaly_deg":279.2622,"bstar":0.00057369,"rev_number":5648,"period_min":93.906756910834,"perigee_km":464.85073222661,"apogee_km":466.28927943924,"semimajor_km":6843.7070058329,"source":"CELESTRAK","updated_at":"2026-09-21T09:00:35.681823Z"}}}